Skip Page Navigation
NASA JPL Caltech
NASA Logo - Jet Propulsion Laboratory + View the NASA Portal
+ Center for Near-Earth Object Studies
JPL Home Earth Solar System Stars & Galaxies Technology
JPL Solar System Dynamics
BODIES ORBITS EPHEMERIDES TOOLS PHYSICAL DATA DISCOVERY FAQ SITE MAP
IMPORTANT: The SSD Announcement email list is now available. Major changes are coming in the near future, including possible hostname and/or URL changes. To be notified of such changes, subscribe to this email list.

Please visit this page for more details.


JPL Small-Body Database Browser
Search: [ help ]  
212892 (2007 VV291)
Classification: Main-belt Asteroid          SPK-ID: 2212892
Ephemeris | Orbit Diagram | Orbital Elements | Mission Design | Physical Parameters | Discovery Circumstances | Close-Approach Data ]

[ show orbit diagram ]
Orbital Elements at Epoch 2458600.5 (2019-Apr-27.0) TDB
Reference: JPL 11 (heliocentric ecliptic J2000)
 Element Value Uncertainty (1-sigma)   Units 
e .1036558471290702 4.9164e-08  
a 2.993985227758882 3.3268e-08 au
q 2.683641152683613 1.4937e-07 au
i 1.34798406202741 6.6868e-06 deg
node 172.1578683502354 0.00024726 deg
peri 300.7067320330307 0.00025024 deg
M 39.72121392431542 3.604e-05 deg
tp 2458391.718064930732
(2018-Sep-30.21806493)
0.00018896 TDB
period 1892.225569141689
5.18
3.1539e-05
8.635e-08
d
yr
n .1902521590823315 3.1711e-09 deg/d
Q 3.304329302834152 3.6717e-08 au
  Orbit Determination Parameters
   # obs. used (total)      196  
   data-arc span      6428 days (17.60 yr)  
   first obs. used      2001-08-24  
   last obs. used      2019-03-31  
   planetary ephem.      DE431  
   SB-pert. ephem.      SB431-N16  
   condition code      0  
   norm. resid. RMS      .62822  
   source      ORB  
   producer      Otto Matic  
   solution date      2019-Jul-14 10:53:48  

Additional Information
 Earth MOID = 1.70076 au 
 Jupiter MOID = 1.78732 au 
 T_jup = 3.246 
[ show covariance matrix ]

Ephemeris | Orbit Diagram | Orbital Elements | Mission Design | Physical Parameters | Discovery Circumstances | Close-Approach Data ]

Physical Parameter Table
Parameter Symbol Value Units Sigma Reference Notes
absolute magnitude H 16.5   n/a MPO427253  

212892 (2007 VV291)          Discovered 2007-Nov-14 by Spacewatch at Kitt Peak
Reference: 20090409/Numbers.arcLast Updated: 2009-04-10

[ show close-approach data ]
Alternate Designations
 2007 VV291 = 2001 SN275 = 2004 GR62 
Ephemeris | Orbit Diagram | Orbital Elements | Mission Design | Physical Parameters | Discovery Circumstances | Close-Approach Data ]
ABOUT SSD CREDITS/AWARDS PRIVACY/COPYRIGHT GLOSSARY LINKS
FirstGov
(server date/time)  
NASA Home Page
Site Manager:   Ryan S. Park
Webmaster  Alan B. Chamberlin